Regional Weather Roundup
Issued by NWS

Home | Current Version | Previous Version | Graphics & Text | Print | Product List | Glossary On
Versions: 1 2 3 4 5 6 7 8 9 10 11 12 13 14 15 16 17 18 19 20 21 22 23 24 25 26 27 28 29 30 31 32 33 34 35 36 37 38 39 40 41 42 43 44 45 46 47 48 49 50
000
ASUS43 KDMX 151101
RWRIA

WEATHER ROUNDUP FOR IOWA
NATIONAL WEATHER SERVICE DES MOINES IA
500 AM CST FRI DEC 15 2017

NOTE: "FAIR" INDICATES FEW OR NO CLOUDS BELOW 12,000 FEET WITH NO
SIGNIFICANT WEATHER AND/OR OBSTRUCTIONS TO VISIBILITY.

* - THESE STATIONS ARE NOT NWS STATIONS...THUS NOT UNDER NWS
QUALITY CONTROL.  THEY ALSO DO NOT REPORT WEATHER SUCH
AS PRECIPITATION OR FOG.

IAZ001>003-012>014-020>022-031>034-043>046-151200-
   NORTHWEST IOWA

CITY           SKY/WX    TMP DP  RH WIND       PRES   REMARKS
CARROLL *      CLOUDY    30  25  80 W13G21    30.01F WCI  20
CHEROKEE *     CLOUDY    30  26  86 W9        29.99F WCI  22
DENISON *      CLOUDY    30  25  80 SW9       30.04S WCI  22
LE MARS *      CLOUDY    32  27  80 SW8       29.99F WCI  25
ORANGE CITY *  CLOUDY    32  30  93 W14       29.97F WCI  22
SHELDON *      CLOUDY    30  27  86 W13       29.95S WCI  20
SIOUX CITY     CLOUDY    34  24  67 W12       30.02F WCI  25
SPENCER        CLOUDY    30  25  81 W14       29.96F WCI  19
STORM LAKE *   CLOUDY    28  25  86 SW13      29.98F WCI  18
$$

IAZ055>058-069>071-079>083-090>094-151200-
   SOUTHWEST IOWA

CITY           SKY/WX    TMP DP  RH WIND       PRES   REMARKS
ATLANTIC *     CLOUDY    30  25  80 SW10      30.05F WCI  21
AUDUBON *      CLOUDY    28  25  86 SW6       30.03F WCI  22
CLARINDA *     CLOUDY    32  25  74 CALM      30.12F
COUNCIL BLFS * CLOUDY    32  28  86 SW8       30.07F WCI  25
CRESTON *      CLOUDY    28  23  80 SW7       30.06F WCI  21
HARLAN  *      CLOUDY    30  25  80 SW13      30.07F WCI  20
LAMONI         CLOUDY    31  22  69 NW6       30.07F WCI  25
RED OAK *      CLOUDY    32  25  74 W7        30.09F WCI  26
SHENANDOAH *   CLOUDY    32  25  74 SW8       30.11F WCI  25
$$

IAZ047>049-059>061-072>074-084-151200-
   CENTRAL IOWA

CITY           SKY/WX    TMP DP  RH WIND       PRES   REMARKS
AMES           CLOUDY    26  24  92 W9        30.01F WCI  17
ANKENY *       CLOUDY    28  23  80 SW6       30.03F WCI  22
BOONE *        CLOUDY    27  23  86 W8        29.99F WCI  18
CHARITON *     CLOUDY    28  25  86 SW8       30.04F WCI  20
DES MOINES     CLOUDY    28  23  81 SW5       30.03F WCI  23
GRINNELL*      CLEAR     23  20  89 W7        30.02F WCI  15
KNOXVILLE *    MOCLDY    27  21  80 SW6       30.02F WCI  20
MARSHALLTOWN   PTCLDY    21  18  88 W9        29.99F WCI  11
NEWTON *       MOCLDY    23  21  93 SW7       30.02S WCI  15
PELLA *        PTCLDY    27  22  83 W5        30.04F WCI  21
PERRY *        CLOUDY    29  22  76 W8        30.02F WCI  21
$$

IAZ004>006-015-016-023>025-035-036-151200-
   NORTH CENTRAL IOWA

CITY           SKY/WX    TMP DP  RH WIND       PRES   REMARKS
ALGONA *       CLOUDY    28  28 100 W12       29.95F WCI  18
CLARION *      CLOUDY    27  27 100 SW9       29.97F WCI  17
ESTHERVILLE    CLOUDY    27  25  92 W9        29.93F WCI  18
FORT DODGE *   FLURRIES  28  24  85 W12       29.98F WCI  18
MASON CITY     CLOUDY    25  20  81 W9        29.95F WCI  15
FOREST CITY *  CLOUDY    28  25  86 W8        29.94F WCI  20
WEBSTER CITY * CLOUDY    28  23  80 SW12      29.96F WCI  18
IOWA FALLS *   CLOUDY    24  22  89 SW10      29.99F WCI  14
$$

IAZ007>011-017>019-026>030-037>042-050>054-066-151200-
   NORTHEAST IOWA

CITY           SKY/WX    TMP DP  RH WIND       PRES   REMARKS
CEDAR RAPIDS   CLOUDY    24  19  81 W13       29.99F WCI  12
CHARLES CITY * CLOUDY    25  23  93 W10       29.95F WCI  15
CLINTON *      PTCLDY    23  17  78 W15       29.98S WCI  10
DECORAH *      MIX PCPN  25  19  80 NW6G17    29.92R WCI  18
DUBUQUE        CLOUDY    23  16  74 W15       29.94S WCI  10
MONTICELLO *   CLOUDY    25  18  74 W9        29.97S WCI  15
OELWEIN *      CLOUDY    25  21  86 W9        29.95F WCI  15
WATERLOO       PTCLDY    23  18  81 W9        29.97F WCI  13
$$

IAZ064-065-067-068-078-151200-
   EAST CENTRAL IOWA

CITY           SKY/WX    TMP DP  RH WIND       PRES   REMARKS
DAVENPORT      CLEAR     25  17  72 W15       30.01S WCI  13
IOWA CITY      MOCLDY    26  19  74 W7        30.03F WCI  18
MT. PLEASANT * CLOUDY    28  24  83 W9        30.03F WCI  20
MUSCATINE *    MOCLDY    28  21  74 W9        30.03F WCI  20
$$

IAZ062-063-075>077-085>089-095>099-151200-
   SOUTHEAST IOWA

CITY           SKY/WX    TMP DP  RH WIND       PRES   REMARKS
BURLINGTON     CLOUDY    29  23  78 NW10      30.03S WCI  20
FAIRFIELD *    CLOUDY    28  23  80 W8        30.04S WCI  20
FORT MADISON * CLOUDY    30  25  80 NW9       30.05S WCI  22
KEOKUK *       CLOUDY    30  25  80 NW8       30.05S WCI  23
OSKALOOSA *    CLOUDY    26  24  91 W9        30.05S WCI  17
OTTUMWA        MOCLDY    27  23  85 W10       30.05S WCI  17
WASHINGTON *   PTCLDY    27  25  93 W10       30.04S WCI  17
$$

ABBREVIATIONS USED IN REMARKS
   TC - TEMPERATURES IN CELSIUS
  WCI - WIND CHILL INDEX
   HX - HEAT INDEX
  VSB - VISIBILITY
$$





USA.gov is the U.S. government's official web portal to all federal, state and local government web resources and services.